| time (UTC) | temp C | wind direction | speed KPH | gust KPH | rain 1hr cm | rain 24hr cm | rain mn cm | humidity % | barometer mb |
| 20260504050506 | 3 | 205 | 4.8 | 9.7 | 0.00 | 0.00 | 0.00 | 77 | 1010.7 |
| 20260504050020 | 3 | 231 | 6.4 | 9.7 | 0.00 | 0.00 | 0.00 | 78 | 1010.7 |
| 20260504045506 | 3 | 219 | 6.4 | 9.7 | 0.00 | 0.00 | 0.00 | 77 | 1010.7 |
| 20260504045010 | 3 | 224 | 4.8 | 9.7 | 0.00 | 0.00 | 0.00 | 78 | 1010.7 |
| 20260504044522 | 3 | 225 | 4.8 | 8.0 | 0.00 | 0.00 | 0.00 | 78 | 1010.7 |
| 20260504044006 | 3 | 255 | 4.8 | 8.0 | 0.00 | 0.00 | 0.00 | 78 | 1010.7 |
| 20260504043507 | 3 | 247 | 3.2 | 6.4 | 0.00 | 0.00 | 0.00 | 79 | 1010.7 |
| 20260504043025 | 3 | 295 | 3.2 | 6.4 | 0.00 | 0.00 | 0.00 | 80 | 1010.7 |
| 20260504042510 | 3 | 215 | 3.2 | 6.4 | 0.00 | 0.00 | 0.00 | 80 | 1010.7 |
| 20260504042011 | 3 | 225 | 3.2 | 6.4 | 0.00 | 0.00 | 0.00 | 80 | 1010.7 |
| 20260504041513 | 3 | 205 | 3.2 | 4.8 | 0.00 | 0.00 | 0.00 | 80 | 1010.8 |
| 20260504041005 | 2 | 319 | 1.6 | 4.8 | 0.00 | 0.00 | 0.00 | 80 | 1010.7 |
| 20260504040506 | 2 | 212 | 3.2 | 6.4 | 0.00 | 0.00 | 0.00 | 80 | 1010.6 |
| 20260504040016 | 2 | 170 | 3.2 | 8.0 | 0.00 | 0.00 | 0.00 | 81 | 1010.6 |
| 20260504035507 | 2 | 212 | 4.8 | 8.0 | 0.00 | 0.00 | 0.00 | 81 | 1010.4 |
| 20260504035007 | 2 | 150 | 1.6 | 4.8 | 0.00 | 0.00 | 0.00 | 82 | 1010.4 |
| 20260504034523 | 2 | 178 | 0.0 | 4.8 | 0.00 | 0.00 | 0.00 | 82 | 1010.4 |
| 20260504034010 | 2 | 232 | 1.6 | 4.8 | 0.00 | 0.00 | 0.00 | 82 | 1010.4 |
| 20260504033507 | 2 | 309 | 3.2 | 4.8 | 0.00 | 0.00 | 0.00 | 82 | 1010.4 |
| 20260504033002 | 2 | 67 | 0.0 | 3.2 | 0.00 | 0.00 | 0.00 | 82 | 1010.3 |
| 20260504032503 | 2 | 238 | 1.6 | 3.2 | 0.00 | 0.00 | 0.00 | 82 | 1010.4 |
| 20260504032002 | 2 | 238 | 0.0 | 3.2 | 0.00 | 0.00 | 0.00 | 82 | 1010.4 |
| 20260504031506 | 2 | 238 | 1.6 | 3.2 | 0.00 | 0.00 | 0.00 | 82 | 1010.3 |
| 20260504031001 | 2 | 265 | 0.0 | 3.2 | 0.00 | 0.00 | 0.00 | 81 | 1010.3 |
| 20260504030502 | 2 | 291 | 1.6 | 3.2 | 0.00 | 0.00 | 0.00 | 80 | 1010.3 |
| 20260504030003 | 2 | 247 | 0.0 | 4.8 | 0.00 | 0.00 | 0.00 | 81 | 1010.4 |
| 20260504025502 | 2 | 255 | 1.6 | 4.8 | 0.00 | 0.00 | 0.00 | 80 | 1010.4 |
| 20260504025004 | 2 | 212 | 1.6 | 4.8 | 0.00 | 0.00 | 0.00 | 79 | 1010.4 |
| 20260504024502 | 2 | 232 | 1.6 | 4.8 | 0.00 | 0.00 | 0.00 | 79 | 1010.4 |
| 20260504024001 | 2 | 265 | 1.6 | 4.8 | 0.00 | 0.00 | 0.00 | 78 | 1010.5 |
| 20260504023502 | 2 | 273 | 3.2 | 4.8 | 0.00 | 0.00 | 0.00 | 78 | 1010.4 |
| 20260504023004 | 2 | 247 | 1.6 | 4.8 | 0.00 | 0.00 | 0.00 | 78 | 1010.4 |
| 20260504022505 | 2 | 250 | 1.6 | 4.8 | 0.00 | 0.00 | 0.00 | 78 | 1010.4 |
| 20260504022004 | 2 | 178 | 0.0 | 4.8 | 0.00 | 0.00 | 0.00 | 77 | 1010.3 |
| 20260504021509 | 2 | 221 | 1.6 | 6.4 | 0.00 | 0.00 | 0.00 | 77 | 1010.3 |
| 20260504021002 | 2 | 282 | 3.2 | 6.4 | 0.00 | 0.00 | 0.00 | 77 | 1010.3 |
| 20260504020502 | 2 | 242 | 3.2 | 4.8 | 0.00 | 0.00 | 0.00 | 78 | 1010.2 |
| 20260504020003 | 2 | 265 | 1.6 | 9.7 | 0.00 | 0.00 | 0.00 | 76 | 1010.1 |
| 20260504015502 | 3 | 249 | 3.2 | 9.7 | 0.00 | 0.00 | 0.00 | 75 | 1010.1 |
| 20260504015001 | 3 | 229 | 4.8 | 8.0 | 0.00 | 0.00 | 0.00 | 75 | 1010.0 |
| 20260504014503 | 3 | 255 | 1.6 | 6.4 | 0.00 | 0.00 | 0.00 | 75 | 1010.1 |
| 20260504014002 | 3 | 286 | 3.2 | 6.4 | 0.00 | 0.00 | 0.00 | 74 | 1010.0 |
| 20260504013503 | 3 | 216 | 4.8 | 9.7 | 0.00 | 0.00 | 0.00 | 73 | 1010.0 |
| 20260504013005 | 3 | 344 | 1.6 | 9.7 | 0.00 | 0.00 | 0.00 | 72 | 1009.9 |
| 20260504012503 | 3 | 255 | 1.6 | 4.8 | 0.00 | 0.00 | 0.00 | 72 | 1009.8 |
| 20260504012003 | 3 | 221 | 1.6 | 4.8 | 0.00 | 0.00 | 0.00 | 71 | 1009.7 |
| 20260504011504 | 4 | 153 | 1.6 | 8.0 | 0.00 | 0.00 | 0.00 | 71 | 1009.6 |
| 20260504011002 | 4 | 238 | 3.2 | 8.0 | 0.00 | 0.00 | 0.00 | 71 | 1009.5 |
| 20260504010502 | 4 | 236 | 4.8 | 6.4 | 0.00 | 0.00 | 0.00 | 70 | 1009.5 |
| 20260504010004 | 5 | 265 | 1.6 | 4.8 | 0.00 | 0.00 | 0.00 | 69 | 1009.3 |
| 20260504005502 | 5 | 242 | 1.6 | 4.8 | 0.00 | 0.00 | 0.00 | 69 | 1009.3 |
| 20260504005002 | 5 | 265 | 1.6 | 9.7 | 0.00 | 0.00 | 0.00 | 67 | 1009.2 |
| 20260504004511 | 5 | 250 | 4.8 | 9.7 | 0.00 | 0.00 | 0.00 | 68 | 1009.1 |
| 20260504004003 | 5 | 249 | 4.8 | 8.0 | 0.00 | 0.00 | 0.00 | 69 | 1009.0 |
| 20260504003501 | 5 | 229 | 3.2 | 6.4 | 0.00 | 0.00 | 0.00 | 68 | 1008.9 |
| 20260504003003 | 5 | 219 | 3.2 | 4.8 | 0.00 | 0.00 | 0.00 | 69 | 1008.8 |
| 20260504002503 | 6 | 238 | 1.6 | 6.4 | 0.00 | 0.00 | 0.00 | 69 | 1008.8 |
| 20260504002003 | 6 | 265 | 3.2 | 6.4 | 0.00 | 0.00 | 0.00 | 65 | 1008.7 |
| 20260504001510 | 6 | 250 | 0.0 | 4.8 | 0.00 | 0.00 | 0.00 | 66 | 1008.7 |
| 20260504001003 | 6 | 338 | 1.6 | 4.8 | 0.00 | 0.00 | 0.00 | 68 | 1008.6 |
| 20260504000502 | 7 | 247 | 1.6 | 6.4 | 0.00 | 0.00 | 0.00 | 65 | 1008.5 |
| 20260504000004 | 7 | 254 | 1.6 | 6.4 | 0.00 | 0.00 | 0.00 | 57 | 1008.6 |
| 20260503235502 | 7 | 249 | 3.2 | 6.4 | 0.00 | 0.00 | 0.00 | 56 | 1008.5 |
| 20260503235003 | 8 | 249 | 3.2 | 6.4 | 0.00 | 0.00 | 0.00 | 55 | 1008.4 |
| 20260503234504 | 8 | 241 | 3.2 | 4.8 | 0.00 | 0.00 | 0.00 | 51 | 1008.3 |
| 20260503234003 | 8 | 238 | 1.6 | 4.8 | 0.00 | 0.00 | 0.00 | 50 | 1008.3 |
| 20260503233509 | 8 | 229 | 1.6 | 3.2 | 0.00 | 0.00 | 0.00 | 46 | 1008.3 |
| 20260503233004 | 9 | 51 | 1.6 | 4.8 | 0.00 | 0.00 | 0.00 | 47 | 1008.3 |
| 20260503232502 | 9 | 309 | 0.0 | 8.0 | 0.00 | 0.00 | 0.00 | 46 | 1008.2 |
| 20260503232003 | 9 | 279 | 1.6 | 8.0 | 0.00 | 0.00 | 0.00 | 46 | 1008.2 |
| 20260503231504 | 10 | 329 | 3.2 | 8.0 | 0.00 | 0.00 | 0.00 | 44 | 1008.2 |
| 20260503231004 | 10 | 9 | 3.2 | 8.0 | 0.00 | 0.00 | 0.00 | 42 | 1008.2 |
| 20260503230503 | 10 | 341 | 3.2 | 16.1 | 0.00 | 0.00 | 0.00 | 41 | 1008.2 |
| 20260503230004 | 10 | 22 | 6.4 | 16.1 | 0.00 | 0.00 | 0.00 | 39 | 1008.2 |
| 20260503225503 | 10 | 57 | 1.6 | 16.1 | 0.00 | 0.00 | 0.00 | 41 | 1008.2 |
| 20260503225003 | 11 | 13 | 6.4 | 19.3 | 0.00 | 0.00 | 0.00 | 40 | 1008.2 |
| 20260503224505 | 11 | 36 | 9.7 | 19.3 | 0.00 | 0.00 | 0.00 | 38 | 1008.2 |
| 20260503224003 | 11 | 31 | 11.3 | 22.5 | 0.00 | 0.00 | 0.00 | 39 | 1008.2 |
| 20260503223505 | 11 | 15 | 8.0 | 22.5 | 0.00 | 0.00 | 0.00 | 40 | 1008.2 |
| 20260503223008 | 11 | 67 | 3.2 | 19.3 | 0.00 | 0.00 | 0.00 | 41 | 1008.2 |
| 20260503222505 | 11 | 28 | 8.0 | 22.5 | 0.00 | 0.00 | 0.00 | 37 | 1008.2 |
| 20260503222003 | 11 | 291 | 11.3 | 22.5 | 0.00 | 0.00 | 0.00 | 37 | 1008.2 |
| 20260503221503 | 11 | 331 | 3.2 | 20.9 | 0.00 | 0.00 | 0.00 | 42 | 1008.2 |
| 20260503221002 | 11 | 346 | 3.2 | 20.9 | 0.00 | 0.00 | 0.00 | 38 | 1008.2 |
| 20260503220505 | 11 | 28 | 9.7 | 16.1 | 0.00 | 0.00 | 0.00 | 39 | 1008.1 |
| 20260503220012 | 11 | 59 | 3.2 | 14.5 | 0.00 | 0.00 | 0.00 | 42 | 1008.2 |
| 20260503215504 | 11 | 13 | 8.0 | 19.3 | 0.00 | 0.00 | 0.00 | 40 | 1008.2 |
| 20260503215003 | 11 | 340 | 1.6 | 19.3 | 0.00 | 0.00 | 0.00 | 41 | 1008.1 |
| 20260503214512 | 11 | 238 | 4.8 | 17.7 | 0.00 | 0.00 | 0.00 | 42 | 1008.1 |
| 20260503214003 | 11 | 309 | 4.8 | 19.3 | 0.00 | 0.00 | 0.00 | 41 | 1008.1 |
| 20260503213505 | 11 | 49 | 9.7 | 24.1 | 0.00 | 0.00 | 0.00 | 39 | 1008.1 |
| 20260503213004 | 11 | 23 | 11.3 | 29.0 | 0.00 | 0.00 | 0.00 | 39 | 1008.1 |
| 20260503212504 | 11 | 47 | 8.0 | 29.0 | 0.00 | 0.00 | 0.00 | 40 | 1008.1 |
| 20260503212006 | 11 | 347 | 4.8 | 32.2 | 0.00 | 0.00 | 0.00 | 40 | 1008.1 |
| 20260503211508 | 11 | 336 | 11.3 | 37.0 | 0.00 | 0.00 | 0.00 | 38 | 1008.1 |
| 20260503211003 | 11 | 332 | 16.1 | 37.0 | 0.00 | 0.00 | 0.00 | 38 | 1008.1 |
| 20260503210504 | 11 | 11 | 16.1 | 27.4 | 0.00 | 0.00 | 0.00 | 38 | 1008.1 |
| 20260503210014 | 11 | 33 | 14.5 | 27.4 | 0.00 | 0.00 | 0.00 | 40 | 1008.0 |
| 20260503205504 | 11 | 313 | 11.3 | 25.7 | 0.00 | 0.00 | 0.00 | 39 | 1008.0 |
| 20260503205005 | 11 | 9 | 11.3 | 25.7 | 0.00 | 0.00 | 0.00 | 41 | 1008.0 |
| 20260503204518 | 11 | 316 | 3.2 | 24.1 | 0.00 | 0.00 | 0.00 | 43 | 1008.1 |
| 20260503204003 | 11 | 305 | 8.0 | 35.4 | 0.00 | 0.00 | 0.00 | 40 | 1008.0 |
| 20260503203502 | 11 | 317 | 9.7 | 35.4 | 0.00 | 0.00 | 0.00 | 39 | 1008.1 |
| 20260503203012 | 11 | 44 | 22.5 | 33.8 | 0.00 | 0.00 | 0.00 | 41 | 1008.0 |
| 20260503202504 | 11 | 18 | 6.4 | 32.2 | 0.00 | 0.00 | 0.00 | 42 | 1008.0 |
| 20260503202006 | 11 | 338 | 12.9 | 38.6 | 0.00 | 0.00 | 0.00 | 40 | 1008.1 |
| 20260503201508 | 11 | 20 | 17.7 | 38.6 | 0.00 | 0.00 | 0.00 | 42 | 1008.0 |
| 20260503201003 | 11 | 15 | 11.3 | 25.7 | 0.00 | 0.00 | 0.00 | 40 | 1008.1 |
| 20260503200502 | 11 | 344 | 12.9 | 29.0 | 0.00 | 0.00 | 0.00 | 41 | 1008.2 |
| 20260503200008 | 11 | 328 | 8.0 | 29.0 | 0.00 | 0.00 | 0.00 | 39 | 1008.2 |
| 20260503195503 | 11 | 321 | 11.3 | 24.1 | 0.00 | 0.00 | 0.00 | 42 | 1008.2 |
| 20260503195002 | 11 | 9 | 9.7 | 41.8 | 0.00 | 0.00 | 0.00 | 41 | 1008.3 |
| 20260503194512 | 11 | 313 | 19.3 | 41.8 | 0.00 | 0.00 | 0.00 | 40 | 1008.4 |
| 20260503194006 | 10 | 312 | 14.5 | 38.6 | 0.00 | 0.00 | 0.00 | 42 | 1008.4 |
| 20260503193505 | 10 | 340 | 17.7 | 49.9 | 0.00 | 0.00 | 0.00 | 40 | 1008.4 |
| 20260503193010 | 10 | 26 | 17.7 | 49.9 | 0.00 | 0.00 | 0.00 | 40 | 1008.5 |
| 20260503192503 | 10 | 34 | 25.7 | 45.1 | 0.00 | 0.00 | 0.00 | 41 | 1008.6 |
| 20260503192002 | 11 | 315 | 11.3 | 35.4 | 0.00 | 0.00 | 0.00 | 43 | 1008.5 |
| 20260503191512 | 11 | 291 | 12.9 | 25.7 | 0.00 | 0.00 | 0.00 | 41 | 1008.5 |
| 20260503191002 | 11 | 48 | 9.7 | 37.0 | 0.00 | 0.00 | 0.00 | 41 | 1008.5 |
| 20260503190505 | 11 | 324 | 16.1 | 37.0 | 0.00 | 0.00 | 0.00 | 41 | 1008.5 |
| 20260503190017 | 11 | 309 | 12.9 | 35.4 | 0.00 | 0.00 | 0.00 | 43 | 1008.4 |
| 20260503185504 | 11 | 26 | 11.3 | 35.4 | 0.00 | 0.00 | 0.00 | 46 | 1008.4 |
| 20260503185005 | 10 | 297 | 8.0 | 43.5 | 0.00 | 0.00 | 0.00 | 44 | 1008.5 |
| 20260503184513 | 10 | 313 | 11.3 | 43.5 | 0.00 | 0.00 | 0.00 | 42 | 1008.5 |
| 20260503184004 | 10 | 277 | 14.5 | 27.4 | 0.00 | 0.00 | 0.00 | 43 | 1008.5 |
| 20260503183504 | 10 | 300 | 9.7 | 41.8 | 0.00 | 0.00 | 0.00 | 44 | 1008.4 |
| 20260503183012 | 11 | 325 | 16.1 | 41.8 | 0.00 | 0.00 | 0.00 | 42 | 1008.4 |
| 20260503182503 | 11 | 25 | 14.5 | 38.6 | 0.00 | 0.00 | 0.00 | 42 | 1008.4 |
| 20260503182004 | 11 | 346 | 20.9 | 45.1 | 0.00 | 0.00 | 0.00 | 41 | 1008.5 |
| 20260503181517 | 11 | 54 | 24.1 | 45.1 | 0.00 | 0.00 | 0.00 | 41 | 1008.5 |
| 20260503181003 | 11 | 303 | 17.7 | 43.5 | 0.00 | 0.00 | 0.00 | 40 | 1008.3 |
| 20260503180506 | 11 | 16 | 16.1 | 38.6 | 0.00 | 0.00 | 0.00 | 40 | 1008.6 |
| 20260503180024 | 11 | 346 | 14.5 | 38.6 | 0.00 | 0.00 | 0.00 | 38 | 1008.6 |
| 20260503175511 | 12 | 265 | 6.4 | 38.6 | 0.00 | 0.00 | 0.00 | 41 | 1008.5 |
| 20260503175006 | 11 | 338 | 14.5 | 35.4 | 0.00 | 0.00 | 0.00 | 44 | 1008.5 |
| 20260503174516 | 11 | 42 | 22.5 | 35.4 | 0.00 | 0.00 | 0.00 | 41 | 1008.6 |
| 20260503174004 | 10 | 294 | 14.5 | 40.2 | 0.00 | 0.00 | 0.00 | 42 | 1008.5 |
| 20260503173504 | 10 | 20 | 14.5 | 53.1 | 0.00 | 0.00 | 0.00 | 44 | 1008.5 |
| 20260503173004 | 10 | 293 | 17.7 | 53.1 | 0.00 | 0.00 | 0.00 | 44 | 1008.5 |
| 20260503172507 | 11 | 55 | 30.6 | 53.1 | 0.00 | 0.00 | 0.00 | 41 | 1008.5 |
| 20260503172004 | 11 | 24 | 24.1 | 38.6 | 0.00 | 0.00 | 0.00 | 44 | 1008.2 |
| 20260503171510 | 11 | 303 | 17.7 | 35.4 | 0.00 | 0.00 | 0.00 | 43 | 1008.1 |
| 20260503171003 | 11 | 13 | 16.1 | 35.4 | 0.00 | 0.00 | 0.00 | 45 | 1008.1 |
| 20260503170503 | 10 | 9 | 11.3 | 48.3 | 0.00 | 0.00 | 0.00 | 43 | 1008.3 |
| 20260503151008 | 11 | 36 | 20.9 | 37.0 | 0.00 | 0.00 | 0.00 | 48 | 1008.4 |
| 20260503150507 | 10 | 50 | 9.7 | 43.5 | 0.00 | 0.00 | 0.00 | 50 | 1008.5 |
| 20260503131005 | 8 | 350 | 12.9 | 29.0 | 0.00 | 0.20 | 0.00 | 59 | 1009.1 |
| 20260503130507 | 7 | 38 | 11.3 | 29.0 | 0.00 | 0.20 | 0.00 | 61 | 1008.9 |
| 20260503110509 | 3 | 325 | 0.0 | 3.2 | 0.00 | 0.23 | 0.00 | 89 | 1009.0 |
| 20260503090504 | 2 | 51 | 3.2 | 4.8 | 0.00 | 0.28 | 0.00 | 87 | 1009.1 |
| 20260503081526 | 2 | 309 | 0.0 | 4.8 | 0.00 | 0.46 | 0.00 | 87 | 1009.5 |
| 20260503081003 | 2 | 9 | 0.0 | 4.8 | 0.00 | 0.48 | 0.00 | 88 | 1009.6 |
| 20260503080504 | 2 | 178 | 1.6 | 4.8 | 0.00 | 0.51 | 0.00 | 87 | 1009.7 |
| 20260503072507 | 2 | 325 | 1.6 | 4.8 | 0.00 | 0.58 | 0.00 | 86 | 1009.8 |
| 20260503072008 | 3 | 93 | 1.6 | 4.8 | 0.00 | 0.61 | 0.00 | 86 | 1009.9 |
| 20260503071520 | 3 | 332 | 3.2 | 4.8 | 0.00 | 0.61 | 0.00 | 86 | 1010.0 |
| 20260503071007 | 3 | 321 | 1.6 | 4.8 | 0.00 | 0.64 | 0.00 | 86 | 1010.1 |
| 20260503070508 | 3 | 321 | 1.6 | 3.2 | 0.00 | 0.64 | 0.00 | 86 | 1010.2 |